Showing default

ANNA 1B, 446

Orbit data source: Space-Track

ANNA 1B, 446 is a payload satellite owned by USN BuWeps (US) in LEO that was launched on Wed, 31 Oct 1962 UTC via a THOR ABLESTAR launch vehicle from the Air Force Eastern Test Range (AFETR). Payload-class satellites include a variety of spacecraft equipped with specific instruments for various scientific and technological missions. These include communications satellites like Starlink; space stations such as the ISS; scientific satellites like the Hubble; Earth observation satellites from companies like Planet Labs, Umbra, and HawkEye 360; GPS; miniature CubeSats for education and research; and military/defense satellites.

Loading next visibility...
Identifier
446, 1962-060A
Orbit
LEO
Country
Flag of USUS
Related business
Manufacturer
APL
Mission
Defense Geodetic
Bus & Motor
TRANSIT 1, Unknown motor
Mass
157 kg wet, 157 kg dry
Launch date (UTC)
1962-10-31 (63 years ago)
Launch vehicle
THOR ABLESTAR
Launch site
Air Force Eastern Test Range (AFETR)
Object type
Payload
Rocket body
Debris
Shape & HBR
Sphere, 0.6 m
Radar Cross Section
0.977 m², Medium (>0.1 m² and < 1m²)

Expand to show TLE details & history
Last TLE update: 22 hours ago

TLE from 22 hours ago
0 ANNA 1B
1 00446U 62060A   25261.03365962 -.00000111  00000-0  28277-4 0  9992
2 00446  50.1407 258.8898 0070209 287.6681 108.6365 13.35351383 67341
Epoch: 2025-09-18T00:48Z
TLE epoch observation values (Epoch: 2025-09-18T00:48:28.191Z)
Latitude
27.63933°
Longitude
-84.64402°
Altitude
1,144.833 km
Speed
7.276 km/s
True Right ascension
18h 58m 41s
True Declination
27° 30' 20"
Sunlit
Object was in daylight at epoch
Visualization orbit readout
Latitude
Unknown
Longitude
Unknown
Altitude
Unknown
Speed
Unknown
Apparent Right ascension
Unknown
Apparent Declination
Unknown
Sunlit
N/A
Visualization observer readout
Local Sidereal Time
15:46:54
Azimuth
Unknown
Elevation
Unknown
Doppler factor
Unknown
Orbital elements
Apogee altitude
1,180.027 km
Perigee altitude
1,074.637 km
Semi-major axis
7,505.469 km
Eccentricity
0.00702
Inclination
50.1407°
RAAN
258.8898°
Arg. of periapsis
287.6681°
True anomaly
109.3967°
Mean anomaly
108.6365°
Eccentric anomaly
109.01681°
Mean motion
3.33792 °/min
Orbital period
107.85 mins
BSTAR
0.000028277
Loading maneuver chart data...
Computing Atmospheric mass density...
Loading historical data...
Loading historical data...
Loading historical data...
Loading historical data...
Loading historical data...
Loading historical data...
Loading historical data...
Other satellites on launch #60 in the year 1962 (1962-10-31 UTC)

Documentation

Showing up to 5 results
|